Location: Guayaquil
(2.1667°S, 79.9000°W)
Time: 09:48:50
(UTC-05:00)

Amateur Radio Satellites - All Passes

Search period start: 25 July 2017 09:18
Search period end: 26 July 2017 09:18
Location: Guayaquil, 2.1667°S, 79.9000°W

Satellite Date Start Highest point End Downlink Frequencies (MHz)
Time Altitude Azimuth
JUGNU 25 Jul 09:23:12 09:28:02 26° 196° (SSW) 09:32:51 437.505
AO-73 25 Jul 09:29:32 09:31:39 14° 281° (W) 09:33:46 145.935
FO-29 25 Jul 09:37:51 09:44:38 88° 78° (ENE) 09:52:11 435.910
DELFI C3 25 Jul 09:52:41 09:56:32 49° 281° (W) 10:00:24 145.870
BEESAT 3 25 Jul 10:01:56 10:04:35 18° 112° (ESE) 10:07:16 437.485
PRISM 25 Jul 10:03:43 10:07:47 85° 75° (ENE) 10:11:51 437.425
UNISAT 6 25 Jul 10:09:08 10:13:48 65° 258° (WSW) 10:18:27 437.425
EO-88 25 Jul 10:17:35 10:20:52 32° 281° (W) 10:24:11 145.990 - 145.960
SRMSAT 25 Jul 10:22:25 10:28:17 63° 201° (SSW) 10:34:11 437.500
LO-87 25 Jul 10:22:27 10:24:34 15° 102° (ESE) 10:26:41 145.935 - 145.965
ESTCUBE 1 25 Jul 10:24:40 10:25:21 10° 103° (ESE) 10:26:01 437.505/2401.250
BEESAT 2 25 Jul 10:42:29 10:44:51 16° 112° (ESE) 10:47:15 435.950
TIGRISAT 25 Jul 10:54:41 10:57:55 19° 257° (WSW) 11:01:09 435.000
EO-79 25 Jul 10:57:45 10:59:44 13° 79° (ENE) 11:01:42 145.935-145.965
AO-85 25 Jul 10:58:13 11:02:38 59° 292° (WNW) 11:06:43 145.980
NANOSAT C BR1 25 Jul 10:58:22 10:59:36 11° 79° (ENE) 11:00:51 145.865
M-CUBED/EXP-1 PRIME 25 Jul 11:00:24 11:03:18 29° 255° (WSW) 11:06:16 437.505
JUGNU 25 Jul 11:14:38 11:17:45 14° 187° (S) 11:20:51 437.505
AIST 2D 25 Jul 11:16:18 11:19:50 84° 79° (E) 11:23:18 435.315
BEESAT 3 25 Jul 11:39:38 11:41:53 15° 292° (WNW) 11:44:10 437.485
SPROUT 25 Jul 11:55:01 11:58:50 33° 102° (ESE) 12:02:40 437.525
LO-87 25 Jul 11:56:04 11:57:44 13° 281° (W) 11:59:24 145.935 - 145.965
ESTCUBE 1 25 Jul 11:57:43 12:01:50 35° 281° (WNW) 12:05:58 437.505/2401.250
DUCHIFAT 1 25 Jul 12:03:04 12:07:21 87° 264° (W) 12:11:35 145.980
POLYITAN 1 25 Jul 12:06:02 12:10:16 57° 258° (WSW) 12:14:28 437.675
SRMSAT 25 Jul 12:12:49 12:17:43 26° 196° (SSW) 12:22:37 437.500
QB50P2 25 Jul 12:19:29 12:23:18 32° 258° (WSW) 12:27:07 145.880/145.840
BEESAT 2 25 Jul 12:19:46 12:22:20 17° 292° (WNW) 12:24:55 435.950
BUGSAT 1 25 Jul 12:30:49 12:34:52 44° 78° (ENE) 12:38:54 437.445
NANOSAT C BR1 25 Jul 12:31:23 12:35:03 28° 258° (WSW) 12:38:42 145.865
EO-79 25 Jul 12:31:43 12:35:13 25° 258° (WSW) 12:38:42 145.935-145.965
VELOX 1 25 Jul 12:41:49 12:46:11 60° 282° (WNW) 12:50:33 145.980
DX 1 25 Jul 12:46:45 12:50:38 32° 103° (ESE) 12:54:31 434.975-435.025
RS-15 25 Jul 12:52:36 13:02:10 30° 112° (ESE) 13:11:59 29.354- 29.394
50 SAT 25 Jul 12:54:16 12:57:39 73° 101° (E) 13:01:03 437.505
JUGNU 25 Jul 13:05:10 13:07:49 13° 176° (S) 13:10:27 437.505
Oscar 19 25 Jul 13:09:36 13:14:31 46° 78° (ENE) 13:19:23 437.125/150
UKube-1 25 Jul 13:28:14 13:32:31 77° 101° (E) 13:36:50 .
Gurwin Techsat 1B 25 Jul 13:38:02 13:43:16 58° 78° (ENE) 13:48:28 435.225
O/OREOS (USA 219) 25 Jul 13:55:18 13:59:52 85° 286° (WNW) 14:04:21 437.305
SRMSAT 25 Jul 14:04:24 14:07:39 15° 187° (S) 14:10:55 437.500
PCSat 25 Jul 14:19:09 14:21:35 13° 71° (ENE) 14:24:01 145.827
DX 1 25 Jul 14:25:57 14:26:33 10° 282° (WNW) 14:27:09 434.975-435.025
MOZHAYETS 4 25 Jul 14:31:34 14:34:43 19° 103° (ESE) 14:37:54
JUGNU 25 Jul 14:53:25 14:57:42 20° 167° (SSE) 15:02:00 437.505
ITAMSAT 1 25 Jul 15:01:59 15:06:47 37° 77° (ENE) 15:11:34 435.822/435.867
RS-15 25 Jul 15:03:02 15:14:10 51° 291° (WNW) 15:25:49 29.354- 29.394
BEESAT 25 Jul 15:09:59 15:14:43 86° 285° (WNW) 15:19:30 436.000
AO-7 25 Jul 15:12:47 15:20:57 60° 74° (ENE) 15:29:07 .
ITUPSAT 1 25 Jul 15:23:35 15:28:14 58° 282° (WNW) 15:32:56 437.325
SRMSAT 25 Jul 15:55:00 15:57:55 14° 176° (S) 16:00:50 437.500
SO-50 25 Jul 15:59:16 16:03:22 31° 69° (ENE) 16:07:30 436.795
PCSat 25 Jul 15:59:41 16:04:41 40° 250° (WSW) 16:09:43 145.827
MOZHAYETS 4 25 Jul 16:08:14 16:11:36 20° 281° (WNW) 16:15:00
Tancredo 1 25 Jul 16:08:19 16:10:21 17° 126° (SE) 16:12:22 437.200
nSIGHT-1 25 Jul 16:35:17 16:35:55 10° 127° (SE) 16:36:33 .
JUGNU 25 Jul 16:41:27 16:47:06 46° 161° (SSE) 16:52:46 437.505
CUBESAT XI-V 25 Jul 16:42:52 16:47:28 57° 282° (WNW) 16:52:06 437.345
ITAMSAT 1 25 Jul 16:43:28 16:45:55 13° 256° (WSW) 16:48:22 435.822/435.867
KKS-1 25 Jul 16:44:45 16:49:10 70° 102° (ESE) 16:53:36 437.445
YUBILEINY 25 Jul 16:52:23 16:57:52 18° 94° (E) 17:03:19 435.215
DOVE 4 25 Jul 17:05:21 17:09:28 36° 78° (ENE) 17:13:48 437.250
AO-7 25 Jul 17:08:12 17:13:15 18° 252° (WSW) 17:18:21 .
STARS 25 Jul 17:13:14 17:17:29 55° 102° (ESE) 17:21:46 437.465
XW-2D 25 Jul 17:27:02 17:29:43 19° 79° (E) 17:32:23 145.860 - 145.880
ISS 25 Jul 17:27:16 17:30:31 66° 126° (SE) 17:33:44 437.550
XW-2B 25 Jul 17:36:38 17:39:48 25° 79° (E) 17:42:55 145.730 - 145.750
SO-50 25 Jul 17:41:31 17:43:37 13° 246° (WSW) 17:45:44 436.795
SRMSAT 25 Jul 17:43:29 17:47:59 21° 167° (SSE) 17:52:29 437.500
Tancredo 1 25 Jul 17:44:59 17:45:32 10° 305° (NW) 17:46:04 437.200
XW-2C 25 Jul 17:53:28 17:57:10 49° 79° (E) 18:00:48 145.795 - 145.815
NUDT-PHONESAT 25 Jul 17:59:11 18:02:42 39° 79° (E) 18:06:10 437.300
nSIGHT-1 25 Jul 18:09:31 18:12:09 22° 305° (NW) 18:14:45 .
KAITUO 1B 25 Jul 18:14:11 18:17:55 77° 79° (E) 18:21:36 145.475/437.950
LilacSat-2 25 Jul 18:17:24 18:21:09 57° 258° (WSW) 18:24:53 437.200
CUTE 1.7 + AOD 2 25 Jul 18:27:28 18:29:48 15° 79° (E) 18:32:06 437.475
JUGNU 25 Jul 18:30:17 18:36:10 66° 339° (NNW) 18:42:06 437.505
XW-2F 25 Jul 18:30:58 18:34:31 39° 258° (WSW) 18:38:02 145.980 - 146.000
CUTE-I 25 Jul 18:32:01 18:37:22 69° 258° (WSW) 18:42:40 437.470
SEEDS 25 Jul 18:39:38 18:40:53 11° 79° (E) 18:42:09 437.485
YUBILEINY 25 Jul 18:45:46 18:54:18 55° 272° (W) 19:02:52 435.215
XW-2D 25 Jul 19:01:57 19:03:37 13° 258° (WSW) 19:05:17 145.860 - 145.880
XW-2A 25 Jul 19:08:10 19:11:09 28° 79° (E) 19:14:06 145.665 - 145.685
UWE-3 25 Jul 19:09:27 19:11:54 14° 79° (E) 19:14:19 435.000/436.395/437.385
AAUSAT CUBESAT 2 25 Jul 19:20:02 19:22:37 16° 79° (E) 19:25:12 437.432
HO-68 25 Jul 19:30:30 19:37:43 81° 256° (WSW) 19:44:54 435.675
SRMSAT 25 Jul 19:31:48 19:37:35 48° 160° (SSE) 19:43:20 437.500
STRAND 1 25 Jul 19:45:27 19:50:22 51° 282° (WNW) 19:55:19 437.568
CUBEBUG 2 25 Jul 19:46:39 19:51:26 87° 262° (W) 19:56:10 437.445
Oscar 11 25 Jul 19:47:50 19:49:23 12° 79° (E) 19:50:55 .
AO-73 25 Jul 20:00:11 20:04:07 29° 79° (E) 20:07:58 145.935
CUTE 1.7 + AOD 2 25 Jul 20:02:11 20:05:22 21° 258° (WSW) 20:08:32 437.475
SEEDS 25 Jul 20:12:51 20:16:19 26° 258° (WSW) 20:19:46 437.485
NO-84 25 Jul 20:13:51 20:18:10 82° 58° (ENE) 20:22:32 435.350 FM
JUGNU 25 Jul 20:20:34 20:25:21 25° 341° (NNW) 20:30:09 437.505
UWE-3 25 Jul 20:44:05 20:48:05 28° 258° (WSW) 20:52:02 435.000/436.395/437.385
AAUSAT CUBESAT 2 25 Jul 20:55:03 20:57:48 18° 258° (WSW) 21:00:34 437.432
ZACube-1 25 Jul 20:56:05 21:00:20 38° 258° (WSW) 21:04:31 437.345
FO-29 25 Jul 21:14:28 21:20:16 51° 102° (ESE) 21:25:31 435.910
SRMSAT 25 Jul 21:20:52 21:26:49 64° 338° (NNW) 21:32:46 437.500
Oscar 11 25 Jul 21:21:35 21:25:15 27° 258° (WSW) 21:28:54 .
M-CUBED/EXP-1 PRIME 25 Jul 21:28:15 21:29:37 11° 106° (ESE) 21:30:57 437.505
TIGRISAT 25 Jul 21:31:42 21:35:30 33° 102° (ESE) 21:39:20 435.000
AO-85 25 Jul 21:34:49 21:35:13 10° 70° (ENE) 21:35:38 145.980
AO-73 25 Jul 21:37:59 21:40:01 13° 257° (WSW) 21:42:01 145.935
DELFI C3 25 Jul 21:49:42 21:53:33 59° 259° (WSW) 21:57:24 145.870
BEESAT 3 25 Jul 21:55:20 21:57:23 14° 68° (ENE) 21:59:26 437.485
EO-88 25 Jul 22:05:57 22:09:33 57° 258° (WSW) 22:13:07 145.990 - 145.960
PRISM 25 Jul 22:07:13 22:11:21 78° 282° (WNW) 22:15:30 437.425
JUGNU 25 Jul 22:13:22 22:15:02 11° 348° (NNW) 22:16:42 437.505
UNISAT 6 25 Jul 22:24:06 22:27:57 35° 282° (WNW) 22:31:52 437.425
ESTCUBE 1 25 Jul 22:35:49 22:38:12 14° 79° (ENE) 22:40:36 437.505/2401.250
BEESAT 2 25 Jul 22:37:02 22:38:57 13° 68° (ENE) 22:40:52 435.950
QB50P2 25 Jul 22:53:02 22:55:02 13° 103° (ESE) 22:57:02 145.880/145.840
M-CUBED/EXP-1 PRIME 25 Jul 22:59:33 23:03:45 35° 286° (WNW) 23:07:49 437.505
AIST 2D 25 Jul 23:03:15 23:06:40 51° 101° (ESE) 23:10:07 435.315
FO-29 25 Jul 23:03:49 23:04:51 10° 285° (WNW) 23:05:53 435.910
NANOSAT C BR1 25 Jul 23:03:55 23:06:16 15° 103° (ESE) 23:08:36 145.865
EO-79 25 Jul 23:04:01 23:06:46 17° 102° (ESE) 23:09:31 145.935-145.965
AO-85 25 Jul 23:10:44 23:15:17 43° 247° (WSW) 23:20:08 145.980
SRMSAT 25 Jul 23:11:26 23:16:10 24° 341° (NNW) 23:20:53 437.500
BEESAT 3 25 Jul 23:31:59 23:34:41 18° 248° (WSW) 23:37:21 437.485
LO-87 25 Jul 23:41:30 23:44:26 23° 258° (WSW) 23:47:22 145.935 - 145.965
SPROUT 26 Jul 00:00:45 00:04:45 38° 78° (ENE) 00:08:44 437.525
DUCHIFAT 1 26 Jul 00:09:32 00:13:37 63° 282° (WNW) 00:17:45 145.980
ESTCUBE 1 26 Jul 00:11:06 00:14:45 25° 257° (WSW) 00:18:24 437.505/2401.250
BEESAT 2 26 Jul 00:13:28 00:16:26 20° 248° (WSW) 00:19:23 435.950
POLYITAN 1 26 Jul 00:13:31 00:17:26 40° 281° (WNW) 00:21:22 437.675
QB50P2 26 Jul 00:27:13 00:30:32 23° 281° (WNW) 00:33:53 145.880/145.840
BUGSAT 1 26 Jul 00:34:59 00:38:53 54° 102° (ESE) 00:42:48 437.445
50 SAT 26 Jul 00:36:17 00:39:14 28° 79° (E) 00:42:11 437.505
NANOSAT C BR1 26 Jul 00:38:36 00:41:42 20° 281° (WNW) 00:44:49 145.865
RS-15 26 Jul 00:38:55 00:46:42 21° 68° (ENE) 00:54:12 29.354- 29.394
EO-79 26 Jul 00:39:26 00:42:15 18° 281° (WNW) 00:45:05 145.935-145.965
Gurwin Techsat 1B 26 Jul 00:41:31 00:43:14 11° 104° (ESE) 00:44:56 435.225
VELOX 1 26 Jul 00:52:16 00:56:29 45° 258° (WSW) 01:00:42 145.980
DX 1 26 Jul 00:55:01 00:59:03 38° 78° (ENE) 01:03:05 434.975-435.025
SRMSAT 26 Jul 01:04:44 01:06:01 11° 348° (NNW) 01:07:19 437.500
UKube-1 26 Jul 01:35:27 01:39:46 89° 66° (ENE) 01:44:03 .
Oscar 19 26 Jul 01:44:08 01:49:13 61° 282° (WNW) 01:54:22 437.125/150
AO-7 26 Jul 01:54:20 01:56:26 11° 109° (ESE) 01:58:32 .
O/OREOS (USA 219) 26 Jul 02:07:24 02:11:50 56° 255° (WSW) 02:16:18 437.305
ITUPSAT 1 26 Jul 02:09:46 02:11:49 13° 78° (ENE) 02:13:52 437.325
Gurwin Techsat 1B 26 Jul 02:17:50 02:22:50 44° 282° (WNW) 02:27:53 435.225
MOZHAYETS 4 26 Jul 02:46:22 02:50:18 28° 79° (ENE) 02:54:11
RS-15 26 Jul 02:47:32 02:58:44 64° 249° (WSW) 03:09:32 29.354- 29.394
PCSat 26 Jul 02:51:21 02:56:34 49° 109° (ESE) 03:01:45 145.827
CUBESAT XI-V 26 Jul 03:26:45 03:27:29 10° 79° (ENE) 03:28:14 437.345
BEESAT 26 Jul 03:30:51 03:35:28 48° 257° (WSW) 03:40:04 436.000
ITAMSAT 1 26 Jul 03:37:43 03:42:51 73° 283° (WNW) 03:48:01 435.822/435.867
AO-7 26 Jul 03:40:20 03:48:39 81° 286° (WNW) 03:56:58 .
JUGNU 26 Jul 03:41:10 03:45:26 20° 17° (NNE) 03:49:40 437.505
ITUPSAT 1 26 Jul 03:45:05 03:49:23 33° 257° (WSW) 03:53:40 437.325
SO-50 26 Jul 04:10:27 04:15:05 74° 112° (ESE) 04:19:37 436.795
MOZHAYETS 4 26 Jul 04:24:50 04:27:09 14° 257° (WSW) 04:29:28
PCSat 26 Jul 04:38:49 04:39:40 10° 289° (WNW) 04:40:32 145.827
KKS-1 26 Jul 04:55:58 05:00:26 88° 265° (W) 05:04:53 437.445
CUBESAT XI-V 26 Jul 05:00:26 05:04:37 35° 258° (WSW) 05:08:46 437.345
ISS 26 Jul 05:02:33 05:05:15 24° 55° (NE) 05:07:57 437.550
Tancredo 1 26 Jul 05:09:41 05:12:27 36° 234° (SW) 05:15:15 437.200
XW-2D 26 Jul 05:21:47 05:24:16 17° 102° (ESE) 05:26:46 145.860 - 145.880
STARS 26 Jul 05:22:42 05:27:06 70° 78° (ENE) 05:31:29 437.465
YUBILEINY 26 Jul 05:25:04 05:32:49 36° 88° (E) 05:40:32 435.215
DOVE 4 26 Jul 05:26:58 05:31:54 82° 102° (ESE) 05:36:33 437.250
JUGNU 26 Jul 05:28:56 05:34:41 51° 21° (NNE) 05:40:24 437.505
XW-2B 26 Jul 05:31:20 05:34:20 22° 102° (ESE) 05:37:23 145.730 - 145.750
CUTE-I 26 Jul 05:33:45 05:38:02 25° 103° (ESE) 05:42:20 437.470
nSIGHT-1 26 Jul 05:43:09 05:46:21 64° 235° (SW) 05:49:35 .
XW-2C 26 Jul 05:48:06 05:51:43 43° 102° (ESE) 05:55:22 145.795 - 145.815
NUDT-PHONESAT 26 Jul 05:51:38 05:54:57 32° 102° (ESE) 05:58:19 437.300
KAITUO 1B 26 Jul 06:07:18 06:11:01 64° 102° (ESE) 06:14:46 145.475/437.950
LilacSat-2 26 Jul 06:12:36 06:16:22 64° 281° (W) 06:20:12 437.200
XW-2F 26 Jul 06:24:59 06:28:36 45° 281° (W) 06:32:16 145.980 - 146.000
SRMSAT 26 Jul 06:32:31 06:36:49 21° 18° (NNE) 06:41:07 437.500
CUTE 1.7 + AOD 2 26 Jul 06:33:53 06:37:03 20° 102° (ESE) 06:40:15 437.475
STRAND 1 26 Jul 06:39:03 06:42:56 21° 78° (ENE) 06:46:46 437.568
ISS 26 Jul 06:41:17 06:41:32 10° 233° (SW) 06:41:48 437.550
SEEDS 26 Jul 06:44:30 06:47:03 16° 102° (ESE) 06:49:36 437.485
XW-2A 26 Jul 06:52:31 06:54:37 16° 102° (ESE) 06:56:43 145.665 - 145.685
XW-2D 26 Jul 06:56:08 06:58:11 14° 281° (W) 07:00:15 145.860 - 145.880
XW-2B 26 Jul 07:07:41 07:08:16 10° 281° (W) 07:08:52 145.730 - 145.750
CUTE-I 26 Jul 07:13:54 07:17:48 21° 282° (WNW) 07:21:42 437.470
JUGNU 26 Jul 07:17:56 07:23:44 58° 200° (SSW) 07:29:30 437.505
UWE-3 26 Jul 07:20:55 07:23:51 19° 102° (ESE) 07:26:50 435.000/436.395/437.385
YUBILEINY 26 Jul 07:22:10 07:29:12 28° 266° (W) 07:36:19 435.215
HO-68 26 Jul 07:23:17 07:30:26 88° 284° (WNW) 07:37:38 435.675
AAUSAT CUBESAT 2 26 Jul 07:23:53 07:27:02 21° 102° (ESE) 07:30:13 437.432
ZACube-1 26 Jul 07:33:04 07:34:55 13° 103° (ESE) 07:36:47 437.345
Oscar 11 26 Jul 07:56:10 07:59:04 18° 102° (ESE) 08:01:58 .
NO-84 26 Jul 07:57:55 08:00:48 81° 303° (WNW) 08:03:37 435.350 FM
CUBEBUG 2 26 Jul 08:00:43 08:04:41 48° 281° (W) 08:08:43 437.445
CUTE 1.7 + AOD 2 26 Jul 08:10:02 08:12:37 16° 281° (W) 08:15:13 437.475
AO-73 26 Jul 08:10:23 08:14:17 40° 102° (ESE) 08:18:15 145.935
STRAND 1 26 Jul 08:17:48 08:21:49 23° 257° (WSW) 08:25:49 437.568
SEEDS 26 Jul 08:19:19 08:22:27 20° 281° (W) 08:25:36 437.485
SRMSAT 26 Jul 08:20:26 08:26:12 54° 22° (NNE) 08:31:58 437.500
XW-2A 26 Jul 08:26:24 08:27:05 10° 281° (W) 08:27:46 145.665 - 145.685
FO-29 26 Jul 08:44:08 08:49:58 29° 76° (ENE) 08:56:13 435.910
UWE-3 26 Jul 08:57:37 09:00:04 15° 281° (W) 09:02:32 435.000/436.395/437.385
AAUSAT CUBESAT 2 26 Jul 08:59:56 09:02:13 14° 281° (W) 09:04:32 437.432
UNISAT 6 26 Jul 09:01:10 09:03:40 14° 79° (ENE) 09:06:07 437.425
ZACube-1 26 Jul 09:07:35 09:10:54 23° 281° (W) 09:14:16 437.345
JUGNU 26 Jul 09:08:21 09:13:01 24° 195° (SSW) 09:17:40 437.505
